DateTimeUTC,F1_A11,F1_S11,BsB_S11,BsG_S11,BsR_S11,BbsB_S11,BbsG_S11,BbsR_S11,BaB_A11,BaG_A11,BaR_A11,Tu_S11,T_S11,Uu_S11,U_S11,P_S11,T1_A11
2021-09-21T22:00:00Z,00000200,21000000,,,,,,,0000.12,-000.01,-000.73,18.1,25.3,,00.0,0653.2,31.0
2021-09-21T22:01:00Z,00000200,21000000,,,,,,,-000.16,-000.10,0000.12,18.1,25.3,,00.0,0653.2,31.0
2021-09-21T22:02:00Z,00000200,21000000,,,,,,,-000.06,-000.22,0000.09,18.0,25.2,,00.0,0653.2,30.9
2021-09-21T22:03:00Z,00000200,61000000,,,,,,,0000.41,0000.34,0000.20,18.0,25.2,,00.0,0653.2,30.9
2021-09-21T22:04:00Z,00000200,41000000,0001.31,0000.92,0000.66,0000.12,0000.26,0000.26,0000.77,0000.37,0000.35,18.0,24.9,,00.0,0654.0,30.9
2021-09-21T22:05:00Z,00000200,01000000,0001.90,0001.50,0001.01,0000.16,0000.39,0000.08,0000.16,0000.88,0000.53,18.1,24.9,,00.0,0654.1,30.9
2021-09-21T22:06:00Z,00000200,01000000,0001.66,0001.00,0000.66,0000.19,0000.30,0000.15,0000.33,0000.43,0000.23,18.1,24.8,,00.0,0654.1,30.9
2021-09-21T22:07:00Z,00000200,01000000,0003.01,0001.13,0000.65,0000.46,0000.19,0000.10,0000.65,0000.32,0000.07,18.1,24.9,,00.0,0654.1,30.9
2021-09-21T22:08:00Z,00000200,01000000,0001.97,0001.41,0000.75,0001.24,0000.09,0000.30,0000.35,0000.48,0000.59,18.2,24.9,,00.0,0654.1,31.0
2021-09-21T22:09:00Z,00000200,01000000,0002.01,0001.13,0000.80,0000.04,0000.31,0000.31,0000.06,0000.33,0000.18,18.3,24.9,,00.0,0654.1,31.0
2021-09-21T22:10:00Z,00000200,01000000,0001.96,0001.32,0001.01,0000.44,-000.12,0000.38,0000.55,0000.41,0000.27,18.3,24.9,,00.0,0654.1,31.0
2021-09-21T22:11:00Z,00000200,01000000,0002.36,0001.05,0000.90,0000.51,0000.25,0000.34,0000.50,-000.02,0000.20,18.4,25.0,,00.0,0654.1,31.0
2021-09-21T22:12:00Z,00000200,01000000,0001.91,0001.08,0001.05,0000.18,0000.29,0000.12,0000.32,0000.60,0000.31,18.5,25.0,,00.0,0654.1,31.0
2021-09-21T22:13:00Z,00000200,01000000,0002.17,0001.58,0000.89,0000.17,0000.60,0000.27,-000.12,-000.16,0000.32,18.6,25.0,,00.0,0654.1,31.0
2021-09-21T22:14:00Z,00000200,01000000,0001.55,0001.38,0000.82,0000.52,0000.57,0000.44,0000.43,0000.75,0000.41,18.6,25.0,,00.0,0654.1,31.0
2021-09-21T22:15:00Z,00000200,01000000,0002.22,0001.53,0000.62,0000.04,0000.26,0000.40,0000.49,0000.20,0000.19,18.6,25.1,,00.0,0654.1,31.0
2021-09-21T22:16:00Z,00000200,01000000,0001.89,0001.08,0000.86,0000.96,0000.39,0000.30,-000.03,-000.01,-000.05,18.6,25.0,,00.0,0654.1,31.0
2021-09-21T22:17:00Z,00000200,01000000,0001.85,0001.22,0000.83,0000.04,0000.32,0000.15,0000.25,0000.00,0000.26,18.5,25.0,,00.0,0654.1,31.0
2021-09-21T22:18:00Z,00000200,01000000,0001.45,0001.46,0000.77,0000.30,0000.06,0000.32,0000.08,0000.54,-000.03,18.4,25.0,,00.0,0654.1,31.0
2021-09-21T22:19:00Z,00000200,01000000,0001.82,0001.34,0000.62,0000.41,0000.52,0000.19,0000.88,0000.02,0000.45,18.3,24.9,,00.0,0654.1,31.0
2021-09-21T22:20:00Z,00000200,01000000,0001.76,0001.32,0000.97,0000.31,0000.35,0000.23,0000.16,0000.63,0000.12,18.3,24.9,,00.0,0654.1,31.0
2021-09-21T22:21:00Z,00000200,01000000,0001.35,0001.31,0000.88,0000.59,0000.27,0000.53,0000.59,0000.15,0000.53,18.4,24.9,,00.0,0654.1,31.0
2021-09-21T22:22:00Z,00000200,01000000,0002.37,0001.28,0000.96,0000.74,0000.41,0000.38,-000.03,0000.30,-000.07,18.4,25.0,,00.0,0654.2,31.0
2021-09-21T22:23:00Z,00000200,01000000,0001.89,0001.05,0000.80,0000.15,0000.13,0000.27,0000.47,0000.57,0000.74,18.5,25.0,,00.0,0654.2,31.0
2021-09-21T22:24:00Z,00000200,01000000,0003.08,0001.50,0001.01,0000.34,0000.64,0000.43,0000.53,0000.23,0000.05,18.5,25.0,,00.0,0654.2,31.0
2021-09-21T22:25:00Z,00000200,01000000,0001.66,0001.00,0001.09,-000.03,0000.46,0000.21,0000.16,0000.34,0000.18,18.6,25.0,,00.0,0654.2,31.0
2021-09-21T22:26:00Z,00000200,01000000,0002.02,0001.17,0000.76,0000.84,0000.56,0000.12,0000.32,0000.26,0000.41,18.7,25.0,,00.0,0654.3,31.0
2021-09-21T22:27:00Z,00000200,01000000,0001.66,0001.15,0000.86,0000.56,0000.21,0000.04,0000.20,0000.10,-000.08,18.7,25.1,,00.0,0654.3,31.0
2021-09-21T22:28:00Z,00000200,01000000,0002.11,0001.06,0000.85,0000.20,0000.35,-000.21,0000.37,0000.37,0000.40,18.7,25.1,,00.0,0654.3,31.0
2021-09-21T22:29:00Z,00000200,01000000,0002.00,0001.29,0000.71,0000.70,0000.25,0000.15,0000.48,0000.07,0000.46,18.7,25.1,,00.0,0654.2,31.0
2021-09-21T22:30:00Z,00000200,01000000,0001.96,0001.47,0000.88,-000.10,0000.12,-000.03,-000.27,0000.56,-000.05,18.6,25.0,,00.0,0654.2,31.0
2021-09-21T22:31:00Z,00000200,01000000,0002.20,0001.12,0000.51,0000.27,0000.18,0000.21,0000.65,0000.10,0000.27,18.5,25.0,,00.0,0654.2,31.0
2021-09-21T22:32:00Z,00000200,01000000,0002.99,0001.26,0000.53,0000.46,0000.37,-000.33,0000.43,-000.01,0000.18,18.5,25.0,,00.0,0654.2,31.0
2021-09-21T22:33:00Z,00000200,01000000,0002.35,0001.35,0000.78,-000.02,0000.32,-000.31,0000.30,0000.42,0000.01,18.4,25.0,,00.0,0654.2,31.0
2021-09-21T22:34:00Z,00000200,01000000,0002.20,0001.41,0000.75,0000.83,0000.64,0000.20,0000.37,0000.55,0000.48,18.3,24.9,,00.0,0654.2,31.0
2021-09-21T22:35:00Z,00000200,01000000,0002.05,0001.16,0000.94,0000.68,0000.07,0000.27,0000.50,0000.41,0000.51,18.3,24.9,,00.0,0654.2,31.0
2021-09-21T22:36:00Z,00000200,01000000,0002.13,0000.89,0000.84,0000.73,0000.21,0000.11,0000.43,0000.43,0000.55,18.4,24.9,,00.0,0654.2,31.0
2021-09-21T22:37:00Z,00000200,01000000,0001.70,0001.04,0000.62,0000.61,0000.20,0000.16,0000.39,0000.63,-000.06,18.4,24.9,,00.0,0654.2,31.0
2021-09-21T22:38:00Z,00000200,01000000,0002.54,0001.06,0000.75,0000.82,0000.21,0000.18,0000.16,-000.10,0000.39,18.5,24.9,,00.0,0654.2,31.0
2021-09-21T22:39:00Z,00000200,01000000,0002.22,0001.38,0000.64,0000.22,0000.36,0000.07,0000.47,0000.45,0000.30,18.5,25.0,,00.0,0654.2,31.0
2021-09-21T22:40:00Z,00000200,01000000,0002.61,0000.94,0000.71,0000.58,0000.41,0000.27,0000.05,0000.37,0000.00,18.6,25.0,,00.0,0654.2,31.0
2021-09-21T22:41:00Z,00000200,01000000,0002.08,0000.65,0001.11,0000.07,0000.44,0000.40,0000.08,0000.40,0000.27,18.7,25.0,,00.0,0654.2,31.0
2021-09-21T22:42:00Z,00000200,01000000,0002.43,0001.22,0000.90,0000.42,0000.20,0000.47,0000.86,0000.30,0000.74,18.7,25.1,,00.0,0654.2,31.0
2021-09-21T22:43:00Z,00000200,01000000,0001.90,0001.24,0001.05,-000.25,0000.42,0000.22,0000.27,-000.02,0000.11,18.8,25.1,,00.0,0654.2,31.0
2021-09-21T22:44:00Z,00000200,01000000,0002.44,0001.26,0001.17,0000.52,0000.45,-000.06,0000.38,0000.62,0000.04,18.8,25.1,,00.0,0654.2,31.0
2021-09-21T22:45:00Z,00000200,01000000,0001.52,0001.15,0000.67,0000.45,0000.54,0000.22,-000.09,0000.06,-000.16,18.8,25.1,,00.0,0654.2,31.0
2021-09-21T22:46:00Z,00000200,01000000,0002.19,0001.29,0000.57,0000.52,0000.24,-000.01,0000.35,0000.13,0000.36,18.8,25.1,,00.0,0654.2,31.0
2021-09-21T22:47:00Z,00000200,01000000,0002.26,0001.02,0001.11,0000.58,0000.37,0000.25,0000.18,0000.11,0000.07,18.7,25.1,,00.0,0654.2,31.0
2021-09-21T22:48:00Z,00000200,01000000,0001.87,0001.34,0001.04,0000.15,0000.52,0000.23,0000.29,-000.01,0000.21,18.6,25.0,,00.0,0654.2,31.0
2021-09-21T22:49:00Z,00000200,01000000,0001.67,0001.37,0000.86,0000.17,0000.20,0000.34,0000.46,0000.28,0000.26,18.5,25.0,,00.0,0654.2,31.0
2021-09-21T22:50:00Z,00000200,01000000,0001.99,0000.96,0000.80,0000.49,0000.35,0000.40,0000.13,0000.95,0000.27,18.5,25.0,,00.0,0654.3,31.0
2021-09-21T22:51:00Z,00000200,01000000,0001.15,0001.08,0000.92,0001.75,0000.21,-000.11,0000.27,0000.37,0000.47,18.5,25.0,,00.0,0654.2,31.0
2021-09-21T22:52:00Z,00000200,01000000,0002.14,0001.26,0000.85,0000.56,0000.13,0000.14,0000.46,0000.27,0000.15,18.6,25.0,,00.0,0654.3,31.0
2021-09-21T22:53:00Z,00000200,01000000,0001.32,0000.97,0000.77,0000.46,0000.42,-000.12,0000.36,0000.17,0000.63,18.6,25.0,,00.0,0654.2,31.0
2021-09-21T22:54:00Z,00000200,01000000,0001.83,0001.31,0001.14,0000.34,0000.07,0000.15,0000.94,0000.36,0000.08,18.7,25.1,,00.0,0654.2,31.0
2021-09-21T22:55:00Z,00000200,01000000,0001.88,0001.31,0000.87,0000.26,0000.45,0000.38,0000.14,0000.86,0000.34,18.7,25.1,,00.0,0654.2,31.0
2021-09-21T22:56:00Z,00000200,01000000,0001.86,0001.19,0000.82,-000.20,0000.36,0000.27,0000.41,-000.03,0000.38,18.8,25.1,,00.0,0654.3,31.0
2021-09-21T22:57:00Z,00000200,41000000,,,,,,,0001.09,0000.85,0000.59,18.8,25.1,,00.0,0654.4,31.0
2021-09-21T22:58:00Z,00000200,61000000,,,,,,,-000.68,-000.09,-000.14,18.6,25.3,,00.0,0653.4,31.0
2021-09-21T22:59:00Z,00000200,21000000,,,,,,,-000.09,-000.23,-000.13,18.5,25.4,,00.0,0653.3,31.0
